Track STARLINK-5186 now! 10-day predictions STARLINK-5186 is classified as:
1 54177U 22141W 24326.04066993 .00002889 00000-0 19952-3 0 9994 2 54177 53.2163 330.3468 0001396 81.6105 278.5045 15.08840309114356